Location: Waco, TX
(31.5480°N, 97.1670°W)
Time: 06:12:44
(UTC-05:00)

ISS - Pass Details

Date: 24 September 2022
Orbit: 414 x 417 km, 51.6° (Epoch: 01 October)

Event Time Altitude Azimuth Distance (km) Brightness Sun altitude
Rises 02:11:23 0° 290° (WNW) 2,356 - -56.7°
Reaches altitude 10° 02:14:36 10° 257° (WSW) 1,487 - -56.4°
Maximum altitude 02:15:51 12° 235° (SW) 1,387 - -56.3°
Drops below altitude 10° 02:17:06 10° 213° (SSW) 1,483 - -56.2°
Sets 02:20:18 0° 179° (S) 2,339 - -55.9°
